| time (UTC) | temp F | wind direction | speed MPH | gust MPH | rain 1hr in | rain 24hr in | rain mn in | humidity % | barometer mb |
| 20260903075826 | 59 | 156 | 4.0 | 12.0 | 0.00 | 0.48 | 0.00 | 87 | 1005.0 |
| 20260903075357 | 59 | 184 | 3.0 | 15.0 | 0.00 | 0.48 | 0.00 | 87 | 1005.0 |
| 20260903075326 | 59 | 184 | 3.0 | 15.0 | 0.00 | 0.48 | 0.00 | 87 | 1005.0 |
| 20260903074825 | 60 | 149 | 4.0 | 15.0 | 0.00 | 0.48 | 0.00 | 87 | 1005.0 |
| 20260903074326 | 59 | 166 | 4.0 | 15.0 | 0.00 | 0.48 | 0.00 | 87 | 1004.9 |
| 20260903073825 | 59 | 170 | 5.0 | 9.0 | 0.00 | 0.48 | 0.00 | 87 | 1004.9 |
| 20260903073325 | 59 | 103 | 5.0 | 9.0 | 0.00 | 0.48 | 0.00 | 87 | 1005.0 |
| 20260903073138 | 59 | 238 | 3.0 | 13.0 | 0.00 | 0.48 | 0.00 | 87 | 1005.0 |
| 20260903072826 | 59 | 238 | 3.0 | 13.0 | 0.00 | 0.48 | 0.00 | 87 | 1005.0 |
| 20260903072325 | 59 | 183 | 5.0 | 13.0 | 0.00 | 0.48 | 0.00 | 87 | 1005.0 |
| 20260903071825 | 59 | 91 | 4.0 | 13.0 | 0.00 | 0.48 | 0.00 | 87 | 1005.0 |
| 20260903071326 | 60 | 91 | 5.0 | 11.0 | 0.00 | 0.48 | 0.00 | 87 | 1004.9 |
| 20260903070825 | 59 | 183 | 1.0 | 11.0 | 0.00 | 0.48 | 0.00 | 87 | 1004.9 |
| 20260903070325 | 59 | 148 | 5.0 | 11.0 | 0.00 | 0.48 | 0.00 | 87 | 1004.9 |
| 20260903065826 | 60 | 173 | 5.0 | 17.0 | 0.00 | 0.48 | 0.00 | 87 | 1004.9 |
| 20260903065325 | 60 | 151 | 4.0 | 17.0 | 0.00 | 0.48 | 0.48 | 87 | 1004.8 |
| 20260903064825 | 59 | 155 | 3.0 | 17.0 | 0.00 | 0.48 | 0.48 | 87 | 1004.9 |
| 20260903063825 | 59 | 138 | 7.0 | 16.0 | 0.00 | 0.48 | 0.48 | 87 | 1004.8 |
| 20260903063325 | 59 | 168 | 4.0 | 16.0 | 0.00 | 0.48 | 0.48 | 87 | 1004.9 |
| 20260903062826 | 59 | 140 | 7.0 | 15.0 | 0.00 | 0.48 | 0.48 | 87 | 1004.9 |
| 20260903062325 | 59 | 103 | 7.0 | 12.0 | 0.00 | 0.48 | 0.48 | 87 | 1004.9 |
| 20260903061825 | 59 | 197 | 5.0 | 16.0 | 0.00 | 0.48 | 0.48 | 87 | 1005.0 |
| 20260903061326 | 59 | 130 | 7.0 | 16.0 | 0.00 | 0.48 | 0.48 | 87 | 1005.0 |
| 20260903060825 | 59 | 173 | 5.0 | 16.0 | 0.00 | 0.48 | 0.48 | 87 | 1005.1 |
| 20260903060325 | 59 | 183 | 6.0 | 12.0 | 0.00 | 0.48 | 0.48 | 87 | 1005.1 |
| 20260903055826 | 59 | 165 | 6.0 | 12.0 | 0.00 | 0.48 | 0.48 | 87 | 1005.1 |
| 20260903055325 | 59 | 141 | 2.0 | 10.0 | 0.00 | 0.48 | 0.48 | 87 | 1005.1 |
| 20260903054825 | 59 | 168 | 6.0 | 14.0 | 0.00 | 0.48 | 0.48 | 87 | 1005.1 |
| 20260903054326 | 59 | 194 | 7.0 | 14.0 | 0.00 | 0.48 | 0.48 | 87 | 1005.2 |
| 20260903053825 | 59 | 154 | 5.0 | 14.0 | 0.00 | 0.48 | 0.48 | 87 | 1005.3 |
| 20260903052826 | 59 | 126 | 3.0 | 17.0 | 0.00 | 0.48 | 0.48 | 87 | 1005.2 |
| 20260903052325 | 59 | 175 | 7.0 | 17.0 | 0.00 | 0.48 | 0.48 | 87 | 1005.2 |
| 20260903051825 | 59 | 176 | 2.0 | 17.0 | 0.00 | 0.48 | 0.48 | 87 | 1005.2 |
| 20260903051326 | 59 | 235 | 7.0 | 11.0 | 0.00 | 0.48 | 0.48 | 87 | 1005.1 |
| 20260903050825 | 59 | 204 | 5.0 | 12.0 | 0.00 | 0.48 | 0.48 | 87 | 1005.1 |
| 20260903050325 | 59 | 172 | 6.0 | 12.0 | 0.00 | 0.48 | 0.48 | 87 | 1005.1 |
| 20260903045826 | 59 | 168 | 4.0 | 12.0 | 0.00 | 0.48 | 0.48 | 87 | 1005.0 |
| 20260903045325 | 59 | 159 | 5.0 | 13.0 | 0.00 | 0.48 | 0.48 | 87 | 1005.0 |
| 20260903044825 | 59 | 127 | 6.0 | 13.0 | 0.00 | 0.48 | 0.48 | 87 | 1005.0 |
| 20260903044326 | 59 | 172 | 6.0 | 13.0 | 0.00 | 0.48 | 0.48 | 87 | 1005.1 |
| 20260903043825 | 59 | 148 | 4.0 | 11.0 | 0.00 | 0.48 | 0.48 | 87 | 1005.1 |
| 20260903042826 | 59 | 135 | 3.0 | 16.0 | 0.00 | 0.48 | 0.48 | 87 | 1005.0 |
| 20260903042325 | 59 | 197 | 5.0 | 16.0 | 0.00 | 0.48 | 0.48 | 87 | 1005.0 |
| 20260903041825 | 59 | 187 | 3.0 | 16.0 | 0.00 | 0.48 | 0.48 | 87 | 1005.0 |
| 20260903041327 | 59 | 190 | 9.0 | 11.0 | 0.00 | 0.48 | 0.48 | 87 | 1005.0 |
| 20260903040825 | 59 | 177 | 3.0 | 11.0 | 0.00 | 0.48 | 0.48 | 87 | 1005.0 |
| 20260903040325 | 59 | 158 | 4.0 | 10.0 | 0.00 | 0.48 | 0.48 | 87 | 1005.0 |
| 20260903035826 | 59 | 190 | 4.0 | 17.0 | 0.00 | 0.48 | 0.48 | 87 | 1004.9 |
| 20260903035325 | 59 | 140 | 5.0 | 17.0 | 0.00 | 0.48 | 0.48 | 87 | 1004.9 |
| 20260903034825 | 59 | 177 | 4.0 | 17.0 | 0.00 | 0.48 | 0.48 | 87 | 1004.7 |
| 20260903034326 | 59 | 183 | 9.0 | 14.0 | 0.00 | 0.48 | 0.48 | 87 | 1004.7 |
| 20260903033825 | 59 | 154 | 5.0 | 13.0 | 0.00 | 0.48 | 0.48 | 86 | 1004.7 |
| 20260903033325 | 59 | 105 | 3.0 | 12.0 | 0.00 | 0.48 | 0.48 | 86 | 1004.7 |
| 20260903032826 | 59 | 211 | 8.0 | 11.0 | 0.00 | 0.48 | 0.48 | 86 | 1004.6 |
| 20260903032325 | 60 | 193 | 3.0 | 15.0 | 0.00 | 0.48 | 0.48 | 87 | 1004.6 |
| 20260903031825 | 60 | 194 | 6.0 | 15.0 | 0.00 | 0.48 | 0.48 | 86 | 1004.6 |
| 20260903031326 | 60 | 190 | 5.0 | 15.0 | 0.00 | 0.48 | 0.48 | 86 | 1004.6 |
| 20260903030825 | 60 | 173 | 8.0 | 13.0 | 0.00 | 0.48 | 0.48 | 86 | 1004.6 |
| 20260903030325 | 60 | 179 | 4.0 | 13.0 | 0.00 | 0.48 | 0.48 | 86 | 1004.5 |
| 20260903025826 | 60 | 201 | 5.0 | 13.0 | 0.00 | 0.48 | 0.48 | 86 | 1004.5 |
| 20260903025325 | 60 | 186 | 4.0 | 14.0 | 0.00 | 0.48 | 0.48 | 86 | 1004.6 |
| 20260903024826 | 60 | 207 | 6.0 | 14.0 | 0.00 | 0.48 | 0.48 | 86 | 1004.5 |
| 20260903024326 | 60 | 196 | 6.0 | 14.0 | 0.00 | 0.48 | 0.48 | 86 | 1004.5 |
| 20260903023825 | 60 | 154 | 6.0 | 11.0 | 0.00 | 0.48 | 0.48 | 86 | 1004.4 |
| 20260903023325 | 60 | 204 | 7.0 | 15.0 | 0.00 | 0.48 | 0.48 | 86 | 1004.5 |
| 20260903022826 | 60 | 177 | 4.0 | 15.0 | 0.00 | 0.48 | 0.48 | 86 | 1004.5 |
| 20260903022325 | 60 | 205 | 7.0 | 15.0 | 0.00 | 0.48 | 0.48 | 85 | 1004.6 |
| 20260903021825 | 60 | 205 | 6.0 | 17.0 | 0.00 | 0.48 | 0.48 | 85 | 1004.5 |
| 20260903021326 | 60 | 184 | 3.0 | 17.0 | 0.00 | 0.48 | 0.48 | 85 | 1004.5 |
| 20260903020825 | 60 | 173 | 7.0 | 17.0 | 0.00 | 0.48 | 0.48 | 85 | 1004.5 |
| 20260903020325 | 60 | 179 | 7.0 | 17.0 | 0.00 | 0.48 | 0.48 | 85 | 1004.5 |
| 20260903015826 | 61 | 182 | 5.0 | 17.0 | 0.00 | 0.48 | 0.48 | 84 | 1004.5 |
| 20260903015325 | 61 | 196 | 4.0 | 17.0 | 0.00 | 0.48 | 0.48 | 84 | 1004.4 |
| 20260903014825 | 61 | 194 | 9.0 | 14.0 | 0.00 | 0.48 | 0.48 | 84 | 1004.3 |
| 20260903014326 | 61 | 205 | 6.0 | 20.0 | 0.00 | 0.48 | 0.48 | 84 | 1004.4 |
| 20260903013825 | 61 | 200 | 10.0 | 20.0 | 0.00 | 0.48 | 0.48 | 84 | 1004.3 |
| 20260903013326 | 61 | 198 | 9.0 | 20.0 | 0.00 | 0.48 | 0.48 | 84 | 1004.4 |
| 20260903012826 | 61 | 207 | 9.0 | 19.0 | 0.00 | 0.48 | 0.48 | 84 | 1004.4 |
| 20260903012325 | 61 | 184 | 11.0 | 17.0 | 0.00 | 0.48 | 0.48 | 83 | 1004.4 |
| 20260903011828 | 61 | 179 | 10.0 | 18.0 | 0.00 | 0.48 | 0.00 | 84 | 1004.3 |
| 20260903011825 | 61 | 179 | 10.0 | 18.0 | 0.00 | 0.48 | 0.48 | 84 | 1004.3 |
| 20260903011326 | 61 | 212 | 7.0 | 18.0 | 0.00 | 0.48 | 0.48 | 84 | 1004.4 |
| 20260903010826 | 61 | 203 | 10.0 | 18.0 | 0.00 | 0.48 | 0.48 | 84 | 1004.3 |
| 20260903010325 | 62 | 256 | 12.0 | 15.0 | 0.00 | 0.48 | 0.48 | 84 | 1004.3 |
| 20260903005826 | 62 | 175 | 8.0 | 20.0 | 0.00 | 0.48 | 0.48 | 84 | 1004.2 |
| 20260903005325 | 62 | 179 | 5.0 | 20.0 | 0.00 | 0.48 | 0.48 | 84 | 1004.3 |
| 20260903004826 | 61 | 210 | 7.0 | 20.0 | 0.00 | 0.48 | 0.48 | 84 | 1004.2 |
| 20260903004326 | 61 | 149 | 9.0 | 21.0 | 0.00 | 0.48 | 0.48 | 84 | 1004.1 |
| 20260903003826 | 61 | 198 | 8.0 | 21.0 | 0.00 | 0.48 | 0.48 | 84 | 1004.2 |
| 20260903003325 | 61 | 180 | 11.0 | 21.0 | 0.00 | 0.48 | 0.48 | 84 | 1004.2 |
| 20260903002825 | 61 | 218 | 7.0 | 16.0 | 0.00 | 0.48 | 0.48 | 85 | 1004.1 |
| 20260903002325 | 61 | 198 | 7.0 | 20.0 | 0.00 | 0.48 | 0.48 | 84 | 1004.1 |
| 20260903001826 | 61 | 201 | 11.0 | 20.0 | 0.00 | 0.48 | 0.48 | 84 | 1004.0 |
| 20260903001326 | 61 | 175 | 11.0 | 20.0 | 0.00 | 0.48 | 0.48 | 84 | 1004.0 |
| 20260903000826 | 62 | 196 | 9.0 | 17.0 | 0.00 | 0.48 | 0.48 | 85 | 1004.0 |
| 20260903000325 | 61 | 176 | 8.0 | 14.0 | 0.00 | 0.48 | 0.48 | 86 | 1003.8 |
| 20260902235826 | 62 | 196 | 7.0 | 14.0 | 0.00 | 0.48 | 0.48 | 86 | 1003.8 |
| 20260902235325 | 62 | 189 | 4.0 | 14.0 | 0.00 | 0.48 | 0.48 | 86 | 1003.7 |
| 20260902234826 | 62 | 190 | 10.0 | 13.0 | 0.00 | 0.48 | 0.48 | 85 | 1003.6 |
| 20260902234326 | 63 | 200 | 6.0 | 13.0 | 0.00 | 0.48 | 0.48 | 86 | 1003.6 |
| 20260902233826 | 63 | 190 | 5.0 | 13.0 | 0.00 | 0.48 | 0.48 | 87 | 1003.5 |
| 20260902233325 | 63 | 196 | 7.0 | 13.0 | 0.00 | 0.48 | 0.48 | 87 | 1003.4 |
| 20260902232826 | 63 | 200 | 7.0 | 13.0 | 0.00 | 0.48 | 0.48 | 87 | 1003.4 |
| 20260902232325 | 62 | 186 | 9.0 | 16.0 | 0.00 | 0.48 | 0.48 | 87 | 1003.4 |
| 20260902231826 | 63 | 186 | 4.0 | 16.0 | 0.00 | 0.48 | 0.48 | 88 | 1003.3 |
| 20260902231326 | 63 | 180 | 8.0 | 16.0 | 0.00 | 0.48 | 0.48 | 87 | 1003.3 |
| 20260902230826 | 63 | 194 | 11.0 | 15.0 | 0.00 | 0.48 | 0.48 | 88 | 1003.2 |
| 20260902225826 | 63 | 222 | 8.0 | 11.0 | 0.00 | 0.48 | 0.48 | 89 | 1003.1 |
| 20260902225325 | 63 | 196 | 4.0 | 14.0 | 0.00 | 0.48 | 0.48 | 89 | 1003.1 |
| 20260902224826 | 63 | 229 | 9.0 | 14.0 | 0.00 | 0.48 | 0.48 | 89 | 1003.1 |
| 20260902224326 | 63 | 182 | 6.0 | 14.0 | 0.00 | 0.48 | 0.48 | 89 | 1003.0 |
| 20260902223325 | 63 | 186 | 7.0 | 14.0 | 0.01 | 0.48 | 0.48 | 89 | 1002.8 |
| 20260902222826 | 63 | 256 | 8.0 | 14.0 | 0.01 | 0.48 | 0.48 | 89 | 1002.8 |
| 20260902222325 | 62 | 196 | 6.0 | 11.0 | 0.01 | 0.48 | 0.48 | 90 | 1002.8 |
| 20260902221826 | 62 | 187 | 3.0 | 13.0 | 0.01 | 0.48 | 0.48 | 90 | 1002.8 |
| 20260902221326 | 61 | 196 | 5.0 | 13.0 | 0.01 | 0.48 | 0.48 | 90 | 1002.7 |
| 20260902220325 | 61 | 205 | 5.0 | 13.0 | 0.01 | 0.48 | 0.48 | 90 | 1002.6 |
| 20260902215826 | 60 | 191 | 4.0 | 13.0 | 0.01 | 0.48 | 0.48 | 90 | 1002.6 |
| 20260902215325 | 60 | 201 | 7.0 | 13.0 | 0.01 | 0.48 | 0.48 | 90 | 1002.6 |
| 20260902214825 | 60 | 190 | 2.0 | 13.0 | 0.01 | 0.48 | 0.48 | 90 | 1002.7 |
| 20260902214326 | 60 | 184 | 5.0 | 13.0 | 0.01 | 0.48 | 0.48 | 90 | 1002.7 |
| 20260902213826 | 60 | 201 | 6.0 | 13.0 | 0.00 | 0.47 | 0.48 | 90 | 1002.6 |
| 20260902213325 | 60 | 211 | 5.0 | 13.0 | 0.00 | 0.47 | 0.47 | 90 | 1002.5 |
| 20260902212825 | 60 | 191 | 3.0 | 15.0 | 0.00 | 0.47 | 0.47 | 90 | 1002.4 |
| 20260902212325 | 60 | 203 | 5.0 | 15.0 | 0.00 | 0.47 | 0.47 | 90 | 1002.3 |
| 20260902211825 | 60 | 212 | 4.0 | 15.0 | 0.00 | 0.47 | 0.47 | 90 | 1002.2 |
| 20260902211326 | 60 | 193 | 4.0 | 14.0 | 0.00 | 0.47 | 0.47 | 90 | 1002.2 |
| 20260902210825 | 60 | 242 | 8.0 | 17.0 | 0.01 | 0.47 | 0.47 | 90 | 1002.2 |
| 20260902210326 | 59 | 186 | 2.0 | 17.0 | 0.01 | 0.47 | 0.47 | 90 | 1002.2 |
| 20260902205827 | 59 | 214 | 6.0 | 17.0 | 0.01 | 0.47 | 0.47 | 90 | 1002.3 |
| 20260902205325 | 59 | 194 | 8.0 | 11.0 | 0.01 | 0.47 | 0.47 | 90 | 1002.2 |
| 20260902204825 | 59 | 159 | 7.0 | 18.0 | 0.01 | 0.47 | 0.47 | 90 | 1002.1 |
| 20260902204326 | 59 | 212 | 9.0 | 18.0 | 0.01 | 0.47 | 0.47 | 90 | 1002.1 |
| 20260902203825 | 59 | 176 | 8.0 | 18.0 | 0.02 | 0.47 | 0.47 | 90 | 1002.0 |
| 20260902203325 | 59 | 191 | 6.0 | 16.0 | 0.02 | 0.47 | 0.47 | 90 | 1002.0 |
| 20260902202826 | 59 | 189 | 7.0 | 16.0 | 0.03 | 0.47 | 0.47 | 90 | 1002.0 |
| 20260902202325 | 59 | 137 | 9.0 | 15.0 | 0.03 | 0.47 | 0.47 | 90 | 1001.7 |
| 20260902201825 | 59 | 201 | 8.0 | 28.0 | 0.03 | 0.47 | 0.47 | 90 | 1001.8 |
| 20260902201326 | 59 | 203 | 10.0 | 28.0 | 0.03 | 0.47 | 0.47 | 90 | 1001.7 |
| 20260902200825 | 59 | 190 | 10.0 | 28.0 | 0.04 | 0.47 | 0.47 | 90 | 1001.6 |
| 20260902200325 | 59 | 233 | 17.0 | 27.0 | 0.04 | 0.47 | 0.47 | 90 | 1001.5 |
| 20260902195827 | 59 | 172 | 14.0 | 30.0 | 0.07 | 0.46 | 0.46 | 90 | 1001.7 |
| 20260902195325 | 59 | 179 | 14.0 | 30.0 | 0.07 | 0.46 | 0.46 | 90 | 1001.6 |
| 20260902194859 | 59 | 193 | 11.0 | 30.0 | 0.11 | 0.46 | 0.46 | 90 | 1001.7 |
| 20260902194825 | 59 | 193 | 11.0 | 30.0 | 0.11 | 0.46 | 0.46 | 90 | 1001.7 |
| 20260902194326 | 59 | 187 | 14.0 | 35.0 | 0.11 | 0.46 | 0.46 | 90 | 1001.7 |
| 20260902193825 | 59 | 191 | 8.0 | 35.0 | 0.13 | 0.46 | 0.46 | 90 | 1001.6 |
| 20260902193325 | 59 | 218 | 12.0 | 35.0 | 0.13 | 0.45 | 0.45 | 89 | 1001.7 |
| 20260902192827 | 59 | 198 | 13.0 | 32.0 | 0.14 | 0.45 | 0.45 | 89 | 1001.6 |
| 20260902192325 | 59 | 149 | 9.0 | 21.0 | 0.14 | 0.45 | 0.45 | 89 | 1001.7 |
| 20260902191826 | 59 | 173 | 7.0 | 16.0 | 0.16 | 0.44 | 0.44 | 89 | 1001.4 |
| 20260902191326 | 59 | 168 | 9.0 | 11.0 | 0.16 | 0.44 | 0.44 | 89 | 1001.4 |
| 20260902190825 | 59 | 190 | 5.0 | 9.0 | 0.14 | 0.43 | 0.44 | 89 | 1001.3 |
| 20260902190325 | 59 | 207 | 5.0 | 14.0 | 0.14 | 0.43 | 0.43 | 89 | 1001.2 |
| 20260902185827 | 59 | 175 | 5.0 | 14.0 | 0.11 | 0.41 | 0.41 | 89 | 1001.1 |
| 20260902185325 | 59 | 201 | 7.0 | 14.0 | 0.11 | 0.40 | 0.40 | 89 | 1001.0 |
| 20260902184825 | 59 | 155 | 5.0 | 18.0 | 0.07 | 0.37 | 0.38 | 89 | 1001.0 |
| 20260902184326 | 59 | 154 | 6.0 | 18.0 | 0.07 | 0.36 | 0.36 | 89 | 1000.9 |
| 20260902183825 | 60 | 170 | 4.0 | 18.0 | 0.05 | 0.34 | 0.34 | 89 | 1000.7 |
| 20260902183325 | 60 | 177 | 7.0 | 16.0 | 0.05 | 0.32 | 0.33 | 89 | 1000.6 |
| 20260902182827 | 59 | 109 | 6.0 | 16.0 | 0.04 | 0.31 | 0.31 | 89 | 1000.7 |
| 20260902182325 | 60 | 191 | 6.0 | 10.0 | 0.04 | 0.30 | 0.30 | 89 | 1000.7 |
| 20260902181825 | 59 | 144 | 4.0 | 16.0 | 0.03 | 0.29 | 0.29 | 89 | 1000.6 |
| 20260902181326 | 59 | 137 | 5.0 | 16.0 | 0.03 | 0.28 | 0.28 | 89 | 1000.6 |
| 20260902180825 | 59 | 180 | 3.0 | 16.0 | 0.06 | 0.28 | 0.28 | 89 | 1000.5 |
| 20260902180325 | 59 | 147 | 4.0 | 14.0 | 0.06 | 0.28 | 0.28 | 89 | 1000.4 |
| 20260902175827 | 59 | 196 | 6.0 | 13.0 | 0.07 | 0.28 | 0.28 | 89 | 1000.3 |
| 20260902175325 | 59 | 173 | 6.0 | 13.0 | 0.07 | 0.28 | 0.28 | 89 | 1000.3 |
| 20260902174825 | 59 | 68 | 4.0 | 13.0 | 0.10 | 0.28 | 0.28 | 89 | 1000.2 |
| 20260902174326 | 59 | 156 | 4.0 | 15.0 | 0.10 | 0.28 | 0.28 | 89 | 1000.2 |
| 20260902173825 | 59 | 161 | 3.0 | 15.0 | 0.10 | 0.28 | 0.28 | 89 | 1000.2 |
| 20260902173325 | 59 | 173 | 2.0 | 15.0 | 0.10 | 0.28 | 0.28 | 89 | 1000.3 |
| 20260902172827 | 59 | 172 | 2.0 | 13.0 | 0.11 | 0.27 | 0.27 | 88 | 1000.2 |
| 20260902172325 | 59 | 86 | 5.0 | 11.0 | 0.11 | 0.26 | 0.26 | 88 | 1000.2 |
| 20260902171825 | 59 | 183 | 3.0 | 16.0 | 0.11 | 0.26 | 0.26 | 88 | 1000.1 |
| 20260902171326 | 59 | 169 | 6.0 | 16.0 | 0.11 | 0.25 | 0.25 | 88 | 1000.1 |
| 20260902170825 | 59 | 191 | 3.0 | 16.0 | 0.08 | 0.24 | 0.25 | 88 | 1000.2 |
| 20260902170325 | 59 | 109 | 5.0 | 19.0 | 0.08 | 0.23 | 0.23 | 88 | 1000.3 |
| 20260902165826 | 59 | 64 | 5.0 | 19.0 | 0.08 | 0.22 | 0.22 | 88 | 1000.4 |
| 20260902165325 | 59 | 121 | 5.0 | 19.0 | 0.08 | 0.21 | 0.21 | 88 | 1000.4 |
| 20260902164825 | 59 | 189 | 6.0 | 8.0 | 0.05 | 0.20 | 0.20 | 88 | 1000.6 |
| 20260902164326 | 59 | 84 | 3.0 | 7.0 | 0.05 | 0.19 | 0.19 | 88 | 1000.7 |
| 20260902163825 | 59 | 75 | 3.0 | 9.0 | 0.05 | 0.18 | 0.18 | 88 | 1000.8 |
| 20260902163327 | 59 | 96 | 3.0 | 9.0 | 0.05 | 0.17 | 0.18 | 88 | 1000.9 |
| 20260902162827 | 59 | 116 | 2.0 | 9.0 | 0.04 | 0.16 | 0.16 | 88 | 1001.0 |
| 20260902162325 | 59 | 138 | 4.0 | 8.0 | 0.04 | 0.15 | 0.15 | 88 | 1001.0 |
| 20260902161825 | 59 | 138 | 3.0 | 8.0 | 0.04 | 0.15 | 0.15 | 88 | 1001.1 |
| 20260902161326 | 59 | 85 | 2.0 | 8.0 | 0.04 | 0.14 | 0.15 | 88 | 1001.3 |
| 20260902160825 | 59 | 102 | 4.0 | 7.0 | 0.06 | 0.14 | 0.14 | 88 | 1001.3 |
| 20260902160326 | 59 | 105 | 3.0 | 10.0 | 0.06 | 0.14 | 0.14 | 88 | 1001.5 |
| 20260902155826 | 59 | 124 | 2.0 | 10.0 | 0.07 | 0.13 | 0.14 | 88 | 1001.7 |
| 20260902155325 | 59 | 123 | 3.0 | 10.0 | 0.07 | 0.13 | 0.13 | 88 | 1001.9 |
| 20260902154826 | 59 | 156 | 3.0 | 7.0 | 0.09 | 0.13 | 0.13 | 87 | 1001.9 |
| 20260902154326 | 59 | 130 | 2.0 | 7.0 | 0.09 | 0.13 | 0.13 | 87 | 1002.0 |
| 20260902153825 | 59 | 190 | 1.0 | 7.0 | 0.10 | 0.12 | 0.12 | 87 | 1002.0 |
| 20260902153325 | 59 | 183 | 2.0 | 6.0 | 0.10 | 0.12 | 0.12 | 87 | 1002.1 |
| 20260902152826 | 59 | 198 | 2.0 | 6.0 | 0.10 | 0.12 | 0.12 | 87 | 1002.0 |
| 20260902152325 | 59 | 109 | 1.0 | 6.0 | 0.10 | 0.12 | 0.12 | 87 | 1002.0 |
| 20260902151825 | 59 | 110 | 2.0 | 6.0 | 0.09 | 0.11 | 0.11 | 87 | 1002.1 |
| 20260902151326 | 59 | 99 | 3.0 | 6.0 | 0.09 | 0.10 | 0.11 | 87 | 1002.0 |
| 20260902150825 | 59 | 98 | 1.0 | 6.0 | 0.07 | 0.10 | 0.10 | 87 | 1001.9 |
| 20260902150325 | 59 | 99 | 1.0 | 6.0 | 0.07 | 0.10 | 0.09 | 86 | 1001.9 |
| 20260902145826 | 60 | 119 | 2.0 | 5.0 | 0.05 | 0.07 | 0.07 | 86 | 1002.0 |
| 20260902145325 | 59 | 116 | 2.0 | 5.0 | 0.05 | 0.06 | 0.06 | 86 | 1002.1 |
| 20260902144825 | 60 | 107 | 2.0 | 6.0 | 0.03 | 0.05 | 0.05 | 86 | 1002.1 |
| 20260902144326 | 60 | 196 | 2.0 | 6.0 | 0.03 | 0.04 | 0.04 | 86 | 1002.2 |
| 20260902143826 | 60 | 184 | 3.0 | 6.0 | 0.01 | 0.04 | 0.03 | 86 | 1002.2 |
| 20260902143325 | 60 | 120 | 4.0 | 5.0 | 0.01 | 0.04 | 0.02 | 85 | 1002.1 |
| 20260902142826 | 60 | 68 | 2.0 | 7.0 | 0.00 | 0.04 | 0.02 | 85 | 1002.1 |
| 20260902142325 | 60 | 155 | 1.0 | 7.0 | 0.00 | 0.04 | 0.01 | 85 | 1002.0 |
| 20260902141825 | 60 | 173 | 1.0 | 7.0 | 0.00 | 0.04 | 0.01 | 85 | 1002.1 |
| 20260902141326 | 60 | 40 | 2.0 | 7.0 | 0.00 | 0.04 | 0.01 | 85 | 1002.0 |
| 20260902140825 | 60 | 98 | 4.0 | 15.0 | 0.01 | 0.04 | 0.01 | 85 | 1002.2 |
| 20260902140325 | 60 | 169 | 3.0 | 15.0 | 0.01 | 0.04 | 0.01 | 86 | 1002.3 |
| 20260902135826 | 60 | 204 | 6.0 | 15.0 | 0.01 | 0.04 | 0.01 | 86 | 1002.5 |
| 20260902135325 | 59 | 191 | 7.0 | 14.0 | 0.01 | 0.04 | 0.01 | 86 | 1002.5 |
| 20260902134825 | 59 | 172 | 5.0 | 13.0 | 0.01 | 0.04 | 0.01 | 86 | 1002.5 |
| 20260902134326 | 60 | 166 | 3.0 | 11.0 | 0.01 | 0.04 | 0.01 | 86 | 1002.5 |
| 20260902133825 | 59 | 144 | 5.0 | 7.0 | 0.01 | 0.04 | 0.01 | 86 | 1002.5 |
| 20260902133325 | 59 | 170 | 2.0 | 17.0 | 0.01 | 0.04 | 0.01 | 86 | 1002.5 |
| 20260902132826 | 60 | 93 | 1.0 | 17.0 | 0.01 | 0.04 | 0.01 | 86 | 1002.5 |
| 20260902132325 | 60 | 207 | 4.0 | 17.0 | 0.01 | 0.04 | 0.01 | 86 | 1002.6 |
| 20260902131825 | 60 | 128 | 4.0 | 12.0 | 0.01 | 0.04 | 0.01 | 85 | 1002.7 |
| 20260902131326 | 60 | 154 | 6.0 | 11.0 | 0.01 | 0.04 | 0.01 | 85 | 1002.8 |
| 20260902130825 | 60 | 182 | 5.0 | 11.0 | 0.00 | 0.04 | 0.01 | 85 | 1002.8 |
| 20260902130325 | 60 | 224 | 5.0 | 11.0 | 0.00 | 0.04 | 0.00 | 85 | 1002.9 |
| 20260902125826 | 60 | 180 | 3.0 | 10.0 | 0.00 | 0.04 | 0.00 | 84 | 1003.0 |
| 20260902125325 | 60 | 194 | 4.0 | 10.0 | 0.00 | 0.04 | 0.00 | 84 | 1003.0 |
| 20260902124917 | 61 | 169 | 3.0 | 11.0 | 0.00 | 0.04 | 0.00 | 83 | 1003.2 |
| 20260902124825 | 61 | 169 | 3.0 | 11.0 | 0.00 | 0.04 | 0.00 | 83 | 1003.2 |
| 20260902124326 | 61 | 180 | 6.0 | 11.0 | 0.00 | 0.04 | 0.00 | 83 | 1003.3 |
| 20260902123825 | 61 | 173 | 5.0 | 11.0 | 0.00 | 0.04 | 0.00 | 83 | 1003.3 |
| 20260902123325 | 61 | 221 | 4.0 | 17.0 | 0.00 | 0.04 | 0.00 | 82 | 1003.3 |
| 20260902122826 | 61 | 166 | 3.0 | 17.0 | 0.00 | 0.04 | 0.00 | 82 | 1003.2 |
| 20260902121825 | 61 | 151 | 8.0 | 12.0 | 0.00 | 0.04 | 0.00 | 81 | 1003.2 |
| 20260902121327 | 61 | 197 | 4.0 | 10.0 | 0.00 | 0.04 | 0.00 | 82 | 1003.3 |
| 20260902120825 | 61 | 147 | 3.0 | 10.0 | 0.00 | 0.04 | 0.00 | 82 | 1003.5 |
| 20260902120325 | 61 | 193 | 6.0 | 10.0 | 0.00 | 0.04 | 0.00 | 82 | 1003.4 |
| 20260902115826 | 61 | 208 | 4.0 | 18.0 | 0.00 | 0.04 | 0.00 | 82 | 1003.5 |
| 20260902115325 | 61 | 163 | 4.0 | 18.0 | 0.00 | 0.04 | 0.00 | 82 | 1003.5 |
| 20260902114825 | 61 | 166 | 3.0 | 18.0 | 0.00 | 0.04 | 0.00 | 82 | 1003.6 |
| 20260902114326 | 61 | 149 | 7.0 | 8.0 | 0.00 | 0.04 | 0.00 | 82 | 1003.7 |
| 20260902113825 | 61 | 207 | 4.0 | 11.0 | 0.00 | 0.04 | 0.00 | 82 | 1003.9 |
| 20260902113325 | 61 | 113 | 3.0 | 11.0 | 0.00 | 0.04 | 0.00 | 82 | 1004.0 |
| 20260902112826 | 61 | 161 | 4.0 | 11.0 | 0.00 | 0.04 | 0.00 | 82 | 1004.1 |
| 20260902112325 | 61 | 159 | 5.0 | 14.0 | 0.00 | 0.04 | 0.00 | 83 | 1004.0 |
| 20260902111825 | 61 | 144 | 6.0 | 14.0 | 0.00 | 0.04 | 0.00 | 83 | 1004.1 |
| 20260902111326 | 61 | 190 | 4.0 | 14.0 | 0.00 | 0.04 | 0.00 | 83 | 1004.2 |
| 20260902110827 | 61 | 184 | 4.0 | 12.0 | 0.00 | 0.04 | 0.00 | 83 | 1004.3 |
| 20260902110325 | 61 | 149 | 5.0 | 10.0 | 0.00 | 0.04 | 0.00 | 83 | 1004.4 |
| 20260902105826 | 61 | 190 | 6.0 | 10.0 | 0.00 | 0.04 | 0.00 | 84 | 1004.5 |
| 20260902105325 | 61 | 201 | 4.0 | 11.0 | 0.00 | 0.04 | 0.00 | 84 | 1004.6 |
| 20260902104825 | 61 | 84 | 4.0 | 11.0 | 0.00 | 0.04 | 0.00 | 84 | 1004.6 |
| 20260902104326 | 61 | 100 | 3.0 | 11.0 | 0.00 | 0.04 | 0.00 | 84 | 1004.6 |
| 20260902103825 | 61 | 170 | 4.0 | 8.0 | 0.00 | 0.04 | 0.00 | 84 | 1004.7 |
| 20260902103325 | 61 | 98 | 3.0 | 13.0 | 0.00 | 0.04 | 0.00 | 84 | 1004.8 |
| 20260902102826 | 61 | 183 | 1.0 | 13.0 | 0.00 | 0.04 | 0.00 | 84 | 1004.9 |
| 20260902102325 | 61 | 173 | 5.0 | 13.0 | 0.00 | 0.04 | 0.00 | 84 | 1004.9 |
| 20260902101825 | 61 | 200 | 6.0 | 17.0 | 0.00 | 0.04 | 0.00 | 84 | 1005.0 |
| 20260902101326 | 61 | 212 | 6.0 | 17.0 | 0.00 | 0.04 | 0.00 | 84 | 1005.2 |
| 20260902100825 | 61 | 135 | 4.0 | 17.0 | 0.00 | 0.04 | 0.00 | 85 | 1005.3 |
| 20260902100325 | 61 | 109 | 6.0 | 9.0 | 0.00 | 0.04 | 0.00 | 85 | 1005.3 |
| 20260902095826 | 61 | 189 | 4.0 | 9.0 | 0.00 | 0.04 | 0.00 | 85 | 1005.3 |
| 20260902095325 | 61 | 208 | 2.0 | 13.0 | 0.00 | 0.04 | 0.00 | 85 | 1005.4 |
| 20260902094825 | 61 | 135 | 6.0 | 13.0 | 0.00 | 0.04 | 0.00 | 85 | 1005.5 |
| 20260902094326 | 61 | 200 | 5.0 | 13.0 | 0.00 | 0.04 | 0.00 | 85 | 1005.5 |
| 20260902093825 | 61 | 189 | 5.0 | 11.0 | 0.00 | 0.04 | 0.00 | 85 | 1005.6 |
| 20260902093325 | 61 | 194 | 5.0 | 11.0 | 0.00 | 0.04 | 0.00 | 85 | 1005.6 |
| 20260902092826 | 61 | 212 | 3.0 | 11.0 | 0.00 | 0.04 | 0.00 | 85 | 1005.7 |
| 20260902092325 | 61 | 131 | 4.0 | 16.0 | 0.00 | 0.04 | 0.00 | 85 | 1005.8 |
| 20260902091825 | 61 | 141 | 3.0 | 16.0 | 0.00 | 0.04 | 0.00 | 85 | 1005.8 |
| 20260902091326 | 61 | 191 | 7.0 | 16.0 | 0.00 | 0.04 | 0.00 | 85 | 1005.8 |
| 20260902090825 | 61 | 205 | 8.0 | 14.0 | 0.00 | 0.04 | 0.00 | 85 | 1005.8 |
| 20260902090325 | 61 | 149 | 6.0 | 14.0 | 0.00 | 0.04 | 0.00 | 85 | 1005.9 |
| 20260902085857 | 61 | 201 | 3.0 | 20.0 | 0.00 | 0.04 | 0.00 | 85 | 1005.9 |
| 20260902085826 | 61 | 201 | 3.0 | 20.0 | 0.00 | 0.04 | 0.00 | 85 | 1005.9 |
| 20260902085325 | 61 | 214 | 1.0 | 20.0 | 0.00 | 0.04 | 0.00 | 85 | 1006.0 |
| 20260902084825 | 61 | 158 | 7.0 | 20.0 | 0.00 | 0.04 | 0.00 | 85 | 1006.1 |
| 20260902084326 | 61 | 186 | 10.0 | 15.0 | 0.00 | 0.04 | 0.00 | 85 | 1006.2 |
| 20260902083825 | 61 | 208 | 8.0 | 9.0 | 0.00 | 0.04 | 0.00 | 85 | 1006.2 |
| 20260902083325 | 61 | 218 | 0.0 | 9.0 | 0.00 | 0.04 | 0.00 | 85 | 1006.2 |
| 20260902082826 | 61 | 193 | 3.0 | 14.0 | 0.00 | 0.04 | 0.00 | 85 | 1006.2 |
| 20260902082325 | 61 | 151 | 2.0 | 14.0 | 0.00 | 0.04 | 0.00 | 85 | 1006.3 |
| 20260902081825 | 61 | 177 | 7.0 | 14.0 | 0.00 | 0.04 | 0.00 | 85 | 1006.3 |
| 20260902081326 | 61 | 203 | 4.0 | 13.0 | 0.00 | 0.04 | 0.00 | 85 | 1006.3 |
| 20260902080825 | 61 | 183 | 5.0 | 13.0 | 0.00 | 0.04 | 0.00 | 85 | 1006.3 |
| 20260902080325 | 61 | 236 | 6.0 | 9.0 | 0.00 | 0.04 | 0.00 | 85 | 1006.3 |